DW3733 Luzzi (cosenza) IT current weather conditions

sailwx.info

Wind from 053 at 1 knots gusting 5

Air temperature 21.1° C
Dewpoint 15.6° C

Last reported at 2015-Sep-04 03:53 UTC.
Time now 2015-Sep-04 05:51 UTC

Location: N 39°27' E 016°16'.
View on Google Maps.

See reports from other nearby stations

  
Tides and Currents Weather Stations Pressure Air Temp Water Temp Dewpoint Dewpoint Depression Visibility Wind Speed Wind Dir Waves Ship Positions
date/time (UTC)wind fromknots sea level pressurealtimeterstation pressurevisibilityair tempwater tempwave heightnotes
2015-Sep-04 03:53 053 1 gusting 5 21.1
2015-Sep-04 03:43 045 0 gusting 4 20.6
2015-Sep-04 03:33 086 0 gusting 5 21.1
2015-Sep-04 03:23 089 1 gusting 6 21.1
2015-Sep-04 03:13 065 1 gusting 6 21.7
2015-Sep-04 03:03 130 1 gusting 5 21.1
2015-Sep-04 02:33 054 1 gusting 5 21.7
2015-Sep-04 02:23 114 0 gusting 5 21.7
2015-Sep-04 02:13 090 1 gusting 5 22.2
2015-Sep-04 02:03 225 2 gusting 5 22.2
2015-Sep-04 01:53 105 0 gusting 6 22.2
2015-Sep-04 01:43 117 1 gusting 6 22.2
2015-Sep-04 01:33 174 0 gusting 2 22.2
2015-Sep-04 01:23 141 0 gusting 6 22.2
2015-Sep-04 01:13 120 1 gusting 6 22.2
2015-Sep-04 01:03 205 0 gusting 5 22.2
2015-Sep-04 00:53 029 22.2
2015-Sep-04 00:43 126 1 gusting 5 22.2
2015-Sep-04 00:33 140 2 gusting 4 21.7
2015-Sep-04 00:23 050 0 gusting 2 21.1
2015-Sep-04 00:03 090 0 gusting 5 21.1
2015-Sep-03 23:53 090 0 gusting 2 21.7
2015-Sep-03 23:33 225 22.2
2015-Sep-03 23:23 074 0 gusting 2 22.2
2015-Sep-03 23:13 040 1 gusting 2 23.9
2015-Sep-03 23:03 162 1 gusting 4 24.4
2015-Sep-03 22:53 143 2 gusting 5 24.4
2015-Sep-03 22:43 309 2 gusting 7 24.4
2015-Sep-03 22:33 315 1 gusting 6 23.9
2015-Sep-03 22:23 097 2 gusting 5 23.9
2015-Sep-03 22:13 262 24.4
2015-Sep-03 22:03 317 0 gusting 2 24.4
2015-Sep-03 21:53 193 25.0
2015-Sep-03 21:33 205 1 gusting 6 25.0
2015-Sep-03 21:23 169 1 gusting 5 25.0
2015-Sep-03 21:13 218 1 gusting 5 25.0
2015-Sep-03 21:03 231 0 gusting 2 25.0
2015-Sep-03 20:53 196 0 gusting 4 25.6
2015-Sep-03 20:43 135 1 gusting 5 25.6
2015-Sep-03 20:13 135 1 gusting 4 25.6
2015-Sep-03 20:03 225 25.6
2015-Sep-03 19:53 141 25.6
2015-Sep-03 19:43 135 1 gusting 2 26.1
2015-Sep-03 19:33 183 0 gusting 2 26.1
2015-Sep-03 19:23 223 0 gusting 2 26.7
2015-Sep-03 19:13 191 0 gusting 4 26.7
2015-Sep-03 19:03 232 1 gusting 2 27.2
2015-Sep-03 18:53 162 0 gusting 5 27.8
2015-Sep-03 18:43 221 2 gusting 5 27.8
2015-Sep-03 18:33 202 1 gusting 6 28.3
2015-Sep-03 18:23 135 2 gusting 5 28.9
2015-Sep-03 18:13 090 1 gusting 5 28.3
2015-Sep-03 18:03 067 1 gusting 4 28.9
2015-Sep-03 17:33 241 0 gusting 2 28.9
2015-Sep-03 17:23 126 1 gusting 2 30.6
2015-Sep-03 17:13 214 0 gusting 2 31.1
2015-Sep-03 17:03 222 1 gusting 4 31.1
2015-Sep-03 16:53 265 0 gusting 2 31.7
2015-Sep-03 16:43 229 0 gusting 1 31.7
2015-Sep-03 16:33 201 31.7
2015-Sep-03 16:23 152 0 gusting 2 32.2
2015-Sep-03 16:13 180 0 gusting 2 32.8
2015-Sep-03 16:03 32.8
2015-Sep-03 15:53 274 1 gusting 5 32.8
2015-Sep-03 15:43 303 1 gusting 5 32.8
2015-Sep-03 15:33 296 1 gusting 6 32.8
2015-Sep-03 15:23 185 2 gusting 6 33.3
2015-Sep-03 15:13 148 2 gusting 7 33.9
2015-Sep-03 15:03 264 1 gusting 7 33.9
2015-Sep-03 14:53 144 1 gusting 5 33.9
2015-Sep-03 14:43 297 1 gusting 6 33.9
2015-Sep-03 14:33 185 2 gusting 6 33.9
2015-Sep-03 14:03 315 1 gusting 6 34.4
2015-Sep-03 13:43 180 3 gusting 10 34.4
2015-Sep-03 13:33 284 1 gusting 8 35.0
2015-Sep-03 13:13 022 1 gusting 6 34.4
2015-Sep-03 12:53 356 2 gusting 8 35.0
2015-Sep-03 12:43 090 3 gusting 7 35.0
2015-Sep-03 12:33 35.0
2015-Sep-03 12:13 35.0
2015-Sep-03 11:53 090 1 gusting 5 35.0
2015-Sep-03 11:43 35.0
2015-Sep-03 11:33 325 2 gusting 6 35.0
2015-Sep-03 11:23 330 1 gusting 7 34.4
2015-Sep-03 11:13 135 1 gusting 5 35.0
2015-Sep-03 10:53 350 1 gusting 5 34.4
2015-Sep-03 10:43 346 1 gusting 5 34.4
2015-Sep-03 10:33 239 2 gusting 6 34.4
2015-Sep-03 10:23 002 1 gusting 5 34.4
2015-Sep-03 09:53 045 0 gusting 2 33.9
2015-Sep-03 09:33 143 1 gusting 4 33.3
2015-Sep-03 09:23 016 1 gusting 5 32.8
2015-Sep-03 09:13 350 0 gusting 6 32.8
2015-Sep-03 09:03 193 1 gusting 4 32.8
2015-Sep-03 08:53 180 1 gusting 6 32.2
2015-Sep-03 08:43 173 2 gusting 6 31.7
2015-Sep-03 07:53 152 2 gusting 5 28.9
2015-Sep-03 07:33 253 2 gusting 5 28.3
2015-Sep-03 07:23 135 1 gusting 5 27.2
2015-Sep-03 07:13 052 0 gusting 4 26.7
2015-Sep-03 06:53 145 2 gusting 6 25.6
2015-Sep-03 06:43 214 2 gusting 6 25.0
2015-Sep-03 06:13 174 1 gusting 2 23.3
2015-Sep-03 06:03 155 1 gusting 4 22.8
2015-Sep-03 05:53 180 1 gusting 4 22.8
2015-Sep-03 05:33 045 0 gusting 2 21.1
2015-Sep-03 05:13 135 0 gusting 2 20.0
2015-Sep-03 05:03 045 0 gusting 2 18.9
2015-Sep-03 04:43 090 0 gusting 2 18.9
2015-Sep-03 03:53 073 18.9
2015-Sep-03 03:33 096 0 gusting 2 19.4
2015-Sep-03 03:13 354 0 gusting 2 18.9
2015-Sep-03 03:03 072 1 gusting 2 18.9
2015-Sep-03 02:43 090 1 gusting 4 19.4
2015-Sep-03 02:33 033 0 gusting 2 19.4
2015-Sep-03 02:23 177 0 gusting 1 20.6
2015-Sep-03 02:13 009 0 gusting 2 19.4
2015-Sep-03 02:03 045 0 gusting 2 20.0
2015-Sep-03 01:53 058 0 gusting 2 20.0
2015-Sep-03 01:43 045 0 gusting 5 19.4
2015-Sep-03 01:33 101 1 gusting 5 20.0
2015-Sep-03 01:13 045 0 gusting 2 20.6
2015-Sep-03 01:03 172 0 gusting 2 20.6
2015-Sep-03 00:43 018 0 gusting 2 21.1
2015-Sep-03 00:23 042 0 gusting 1 22.2
2015-Sep-03 00:13 251 21.7
2015-Sep-03 00:03 112 0 gusting 2 21.1
2015-Sep-02 23:53 090 0 gusting 4 21.1
2015-Sep-02 23:43 090 1 gusting 2 21.1
2015-Sep-02 23:33 066 0 gusting 2 21.7
2015-Sep-02 23:23 058 1 gusting 4 22.2
2015-Sep-02 23:13 232 0 gusting 2 22.2
2015-Sep-02 23:03 090 0 gusting 2 21.7
2015-Sep-02 22:53 061 1 gusting 4 21.1
2015-Sep-02 22:43 063 2 gusting 5 21.7
2015-Sep-02 22:33 020 0 gusting 1 22.2
2015-Sep-02 22:23 045 0 gusting 2 22.2
2015-Sep-02 22:13 22.8
2015-Sep-02 21:53 075 0 gusting 4 23.3
2015-Sep-02 21:43 144 0 gusting 4 23.9
2015-Sep-02 21:33 145 0 gusting 4 23.3
2015-Sep-02 21:23 114 1 gusting 6 23.9
2015-Sep-02 21:13 270 0 gusting 4 23.9
2015-Sep-02 20:53 151 0 gusting 1 24.4
2015-Sep-02 20:23 172 0 gusting 4 24.4
2015-Sep-02 20:13 135 1 gusting 5 25.0
2015-Sep-02 19:53 221 1 gusting 5 25.6
2015-Sep-02 19:33 293 0 gusting 4 25.6
2015-Sep-02 19:03 217 3 gusting 8 26.7
2015-Sep-02 18:53 216 1 gusting 8 26.7
2015-Sep-02 18:43 207 2 gusting 13 26.7
2015-Sep-02 18:33 189 4 gusting 10 26.7
2015-Sep-02 18:23 135 2 gusting 6 27.2
2015-Sep-02 18:13 225 4 gusting 6 27.2
2015-Sep-02 18:03 104 2 gusting 7 27.8
2015-Sep-02 17:33 135 1 gusting 5 28.3
2015-Sep-02 17:23 201 1 gusting 5 28.9
2015-Sep-02 17:13 180 1 gusting 6 28.9
2015-Sep-02 17:03 221 2 gusting 6 29.4
2015-Sep-02 16:53 277 4 gusting 7 29.4
2015-Sep-02 16:13 217 1 gusting 6 30.0
2015-Sep-02 16:03 218 3 gusting 7 30.0
2015-Sep-02 15:53 135 4 gusting 6 30.6
2015-Sep-02 15:43 315 2 gusting 11 30.6
2015-Sep-02 15:33 191 4 gusting 7 30.6
2015-Sep-02 15:23 311 2 gusting 5 31.1
2015-Sep-02 15:13 179 1 gusting 7 31.7
2015-Sep-02 15:03 135 2 gusting 8 31.7
2015-Sep-02 14:53 209 0 gusting 6 31.7
2015-Sep-02 14:33 003 2 gusting 8 32.2
2015-Sep-02 14:23 315 1 gusting 6 32.2
2015-Sep-02 14:13 220 1 gusting 6 32.2
2015-Sep-02 14:03 180 0 gusting 6 32.2
2015-Sep-02 13:53 019 1 gusting 6 32.2
2015-Sep-02 12:43 134 2 gusting 7 33.3
2015-Sep-02 12:33 221 2 gusting 6 33.3
2015-Sep-02 12:23 199 1 gusting 7 32.8
2015-Sep-02 12:03 315 0 gusting 6 33.3
2015-Sep-02 11:43 315 1 gusting 6 33.3
2015-Sep-02 11:33 177 1 gusting 8 32.8
2015-Sep-02 11:13 320 1 gusting 5 33.3
2015-Sep-02 10:53 328 2 gusting 7 33.3
2015-Sep-02 10:33 33.3
2015-Sep-02 09:53 225 0 gusting 6 32.8
2015-Sep-02 09:33 206 2 gusting 6 31.7
2015-Sep-02 09:23 256 2 gusting 6 31.7
2015-Sep-02 09:03 212 2 gusting 5 31.1
2015-Sep-02 08:53 165 2 gusting 6 30.6
2015-Sep-02 08:33 225 3 gusting 8 30.0
2015-Sep-02 08:13 215 4 gusting 8 29.4
2015-Sep-02 07:53 216 2 gusting 7 29.4
2015-Sep-02 07:43 294 2 gusting 7 28.9
2015-Sep-02 07:33 180 3 gusting 6 28.3
2015-Sep-02 07:23 201 1 gusting 6 27.8
2015-Sep-02 07:13 180 1 gusting 6 27.8
2015-Sep-02 06:53 195 0 gusting 2 26.7
2015-Sep-02 06:43 057 0 gusting 5 26.1
2015-Sep-02 06:33 198 1 gusting 6 25.6
2015-Sep-02 06:23 180 2 gusting 5 25.0
2015-Sep-02 05:53 194 1 gusting 4 22.8
2015-Sep-02 05:33 131 1 gusting 4 21.1
2015-Sep-02 05:13 338 0 gusting 2 20.0
2015-Sep-02 05:03 190 1 gusting 4 20.0